Time,TemperatureF,DewpointF,PressureIn,WindDirection,WindDirectionDegrees,WindSpeedMPH,WindSpeedGustMPH,Humidity,HourlyPrecipIn,Conditions,Clouds,dailyrainin,SoftwareType,DateUTC
2013-09-03 00:03:00,54.0,-99.9,-100.00,North,-999,-999.0,-999.0,-999,0.00,,,0.05,,2013-09-03 06:03:00,
2013-09-03 00:12:00,54.0,-99.9,-100.00,North,-999,-999.0,-999.0,-999,0.00,,,0.05,,2013-09-03 06:12:00,
2013-09-03 00:43:00,52.0,-99.9,-100.00,North,-999,-999.0,-999.0,-999,0.00,,,0.05,,2013-09-03 06:43:00,
2013-09-03 00:53:00,52.0,-99.9,-100.00,North,-999,-999.0,-999.0,-999,0.00,,,0.05,,2013-09-03 06:53:00,
2013-09-03 01:02:00,52.0,-99.9,-100.00,North,-999,-999.0,-999.0,-999,0.00,,,0.05,,2013-09-03 07:02:00,
2013-09-03 01:12:00,52.0,-99.9,-100.00,North,-999,-999.0,-999.0,-999,0.00,,,0.05,,2013-09-03 07:12:00,
2013-09-03 01:42:00,52.0,-99.9,-100.00,North,-999,-999.0,-999.0,-999,0.00,,,0.05,,2013-09-03 07:42:00,
2013-09-03 01:53:00,52.0,-99.9,-100.00,North,-999,-999.0,-999.0,-999,0.00,,,0.05,,2013-09-03 07:53:00,
2013-09-03 02:04:00,52.0,-99.9,-100.00,North,-999,-999.0,-999.0,-999,0.00,,,0.05,,2013-09-03 08:04:00,
2013-09-03 02:11:00,52.0,-99.9,-100.00,North,-999,-999.0,-999.0,-999,0.00,,,0.05,,2013-09-03 08:11:00,
2013-09-03 02:42:00,53.0,-99.9,-100.00,North,-999,-999.0,-999.0,-999,0.00,,,0.05,,2013-09-03 08:42:00,
2013-09-03 02:52:00,53.0,-99.9,-100.00,North,-999,-999.0,-999.0,-999,0.00,,,0.05,,2013-09-03 08:52:00,
2013-09-03 03:02:00,53.0,-99.9,-100.00,North,-999,-999.0,-999.0,-999,0.00,,,0.05,,2013-09-03 09:02:00,
2013-09-03 03:12:00,53.0,-99.9,-100.00,North,-999,-999.0,-999.0,-999,0.00,,,0.05,,2013-09-03 09:12:00,
2013-09-03 03:43:00,52.0,-99.9,-100.00,North,-999,-999.0,-999.0,-999,0.00,,,0.05,,2013-09-03 09:43:00,
2013-09-03 03:54:00,52.0,-99.9,-100.00,North,-999,-999.0,-999.0,-999,0.00,,,0.05,,2013-09-03 09:54:00,
2013-09-03 04:04:00,52.0,-99.9,-100.00,North,-999,-999.0,-999.0,-999,0.00,,,0.05,,2013-09-03 10:04:00,
2013-09-03 04:13:00,52.0,-99.9,-100.00,North,-999,-999.0,-999.0,-999,0.00,,,0.05,,2013-09-03 10:13:00,
2013-09-03 05:43:00,47.0,-99.9,-100.00,North,-999,-999.0,-999.0,-999,0.00,,,0.05,,2013-09-03 11:43:00,
2013-09-03 05:52:00,47.0,-99.9,-100.00,North,-999,-999.0,-999.0,-999,0.00,,,0.05,,2013-09-03 11:52:00,
2013-09-03 06:02:00,47.0,-99.9,-100.00,North,-999,-999.0,-999.0,-999,0.00,,,0.05,,2013-09-03 12:02:00,
2013-09-03 06:12:00,47.0,-99.9,-100.00,North,-999,-999.0,-999.0,-999,0.00,,,0.05,,2013-09-03 12:12:00,
2013-09-03 06:42:00,46.0,-99.9,-100.00,North,-999,-999.0,-999.0,-999,0.00,,,0.05,,2013-09-03 12:42:00,
2013-09-03 06:52:00,46.0,-99.9,-100.00,North,-999,-999.0,-999.0,-999,0.00,,,0.05,,2013-09-03 12:52:00,
2013-09-03 07:02:00,46.0,-99.9,-100.00,North,-999,-999.0,-999.0,-999,0.00,,,0.05,,2013-09-03 13:02:00,
2013-09-03 07:11:00,46.0,-99.9,-100.00,North,-999,-999.0,-999.0,-999,0.00,,,0.05,,2013-09-03 13:11:00,
2013-09-03 07:42:00,45.0,-99.9,-100.00,North,-999,-999.0,-999.0,-999,0.00,,,-99.99,,2013-09-03 13:42:00,
2013-09-03 07:52:00,45.0,-99.9,-100.00,North,-999,-999.0,-999.0,-999,0.00,,,-99.99,,2013-09-03 13:52:00,
2013-09-03 08:02:00,45.0,-99.9,-100.00,North,-999,-999.0,-999.0,-999,0.00,,,-99.99,,2013-09-03 14:02:00,
2013-09-03 08:11:00,45.0,-99.9,-100.00,North,-999,-999.0,-999.0,-999,0.00,,,-99.99,,2013-09-03 14:11:00,
2013-09-03 08:42:00,53.0,-99.9,-100.00,North,-999,-999.0,-999.0,-999,0.00,,,0.05,,2013-09-03 14:42:00,
2013-09-03 08:52:00,53.0,-99.9,-100.00,North,-999,-999.0,-999.0,-999,0.00,,,0.05,,2013-09-03 14:52:00,
2013-09-03 09:02:00,53.0,-99.9,-100.00,North,-999,-999.0,-999.0,-999,0.00,,,0.05,,2013-09-03 15:02:00,
2013-09-03 09:54:00,65.0,-99.9,-100.00,North,-999,-999.0,-999.0,-999,0.01,,,0.06,,2013-09-03 15:54:00,
2013-09-03 10:04:00,65.0,-99.9,-100.00,North,-999,-999.0,-999.0,-999,0.01,,,0.06,,2013-09-03 16:04:00,
2013-09-03 10:14:00,65.0,-99.9,-100.00,North,-999,-999.0,-999.0,-999,0.01,,,0.06,,2013-09-03 16:14:00,
2013-09-03 10:43:00,72.0,-99.9,-100.00,North,-999,-999.0,-999.0,-999,0.00,,,0.06,,2013-09-03 16:43:00,
2013-09-03 10:54:00,72.0,-99.9,-100.00,North,-999,-999.0,-999.0,-999,0.00,,,0.06,,2013-09-03 16:54:00,
2013-09-03 11:04:00,72.0,-99.9,-100.00,North,-999,-999.0,-999.0,-999,0.00,,,0.06,,2013-09-03 17:04:00,
2013-09-03 11:13:00,72.0,-99.9,-100.00,North,-999,-999.0,-999.0,-999,0.00,,,0.06,,2013-09-03 17:13:00,
2013-09-03 11:43:00,70.0,-99.9,-100.00,North,-999,-999.0,-999.0,-999,0.00,,,0.06,,2013-09-03 17:43:00,
2013-09-03 11:53:00,70.0,-99.9,-100.00,North,-999,-999.0,-999.0,-999,0.00,,,0.06,,2013-09-03 17:53:00,
2013-09-03 12:02:00,70.0,-99.9,-100.00,North,-999,-999.0,-999.0,-999,0.00,,,0.06,,2013-09-03 18:02:00,
2013-09-03 12:12:00,70.0,-99.9,-100.00,North,-999,-999.0,-999.0,-999,0.00,,,0.06,,2013-09-03 18:12:00,
2013-09-03 12:52:00,77.0,-99.9,-100.00,North,-999,-999.0,-999.0,-999,0.00,,,0.06,,2013-09-03 18:52:00,
2013-09-03 13:02:00,77.0,-99.9,-100.00,North,-999,-999.0,-999.0,-999,0.00,,,0.06,,2013-09-03 19:02:00,
2013-09-03 13:11:00,77.0,-99.9,-100.00,North,-999,-999.0,-999.0,-999,0.00,,,0.06,,2013-09-03 19:11:00,
2013-09-03 13:42:00,79.0,-99.9,-100.00,North,-999,-999.0,-999.0,-999,0.00,,,0.06,,2013-09-03 19:42:00,
2013-09-03 13:52:00,79.0,-99.9,-100.00,North,-999,-999.0,-999.0,-999,0.00,,,0.06,,2013-09-03 19:52:00,
2013-09-03 14:02:00,79.0,-99.9,-100.00,North,-999,-999.0,-999.0,-999,0.00,,,0.06,,2013-09-03 20:02:00,
2013-09-03 14:12:00,79.0,-99.9,-100.00,North,-999,-999.0,-999.0,-999,0.00,,,0.06,,2013-09-03 20:12:00,
2013-09-03 14:42:00,83.0,-99.9,-100.00,North,-999,-999.0,-999.0,-999,0.01,,,-99.99,,2013-09-03 20:42:00,
2013-09-03 14:53:00,83.0,-99.9,-100.00,North,-999,-999.0,-999.0,-999,0.01,,,-99.99,,2013-09-03 20:53:00,
2013-09-03 15:02:00,83.0,-99.9,-100.00,North,-999,-999.0,-999.0,-999,0.01,,,-99.99,,2013-09-03 21:02:00,
2013-09-03 15:12:00,83.0,-99.9,-100.00,North,-999,-999.0,-999.0,-999,0.01,,,-99.99,,2013-09-03 21:12:00,
2013-09-03 15:44:00,83.0,-99.9,-100.00,North,-999,-999.0,-999.0,-999,0.03,,,0.10,,2013-09-03 21:44:00,
2013-09-03 15:54:00,83.0,-99.9,-100.00,North,-999,-999.0,-999.0,-999,0.03,,,0.10,,2013-09-03 21:54:00,
2013-09-03 16:04:00,83.0,-99.9,-100.00,North,-999,-999.0,-999.0,-999,0.03,,,0.10,,2013-09-03 22:04:00,
2013-09-03 16:14:00,83.0,-99.9,-100.00,North,-999,-999.0,-999.0,-999,0.03,,,0.10,,2013-09-03 22:14:00,
2013-09-03 16:53:00,85.0,-99.9,-100.00,North,-999,-999.0,-999.0,-999,0.00,,,0.09,,2013-09-03 22:53:00,
2013-09-03 17:04:00,85.0,-99.9,-100.00,North,-999,-999.0,-999.0,-999,0.00,,,0.09,,2013-09-03 23:04:00,
2013-09-03 17:12:00,85.0,-99.9,-100.00,North,-999,-999.0,-999.0,-999,0.00,,,0.09,,2013-09-03 23:12:00,
2013-09-03 17:42:00,80.0,-99.9,-100.00,North,-999,-999.0,-999.0,-999,0.00,,,0.09,,2013-09-03 23:42:00,
2013-09-03 17:54:00,80.0,-99.9,-100.00,North,-999,-999.0,-999.0,-999,0.00,,,0.09,,2013-09-03 23:54:00,
2013-09-03 18:02:00,80.0,-99.9,-100.00,North,-999,-999.0,-999.0,-999,0.00,,,0.09,,2013-09-04 00:02:00,
2013-09-03 18:12:00,80.0,-99.9,-100.00,North,-999,-999.0,-999.0,-999,0.00,,,0.09,,2013-09-04 00:12:00,
2013-09-03 18:42:00,71.0,-99.9,-100.00,North,-999,-999.0,-999.0,-999,0.00,,,0.09,,2013-09-04 00:42:00,
2013-09-03 18:52:00,71.0,-99.9,-100.00,North,-999,-999.0,-999.0,-999,0.00,,,0.09,,2013-09-04 00:52:00,
2013-09-03 19:02:00,71.0,-99.9,-100.00,North,-999,-999.0,-999.0,-999,0.00,,,0.09,,2013-09-04 01:02:00,
2013-09-03 19:12:00,71.0,-99.9,-100.00,North,-999,-999.0,-999.0,-999,0.00,,,0.09,,2013-09-04 01:12:00,
2013-09-03 19:42:00,68.0,-99.9,-100.00,North,-999,-999.0,-999.0,-999,0.00,,,0.05,,2013-09-04 01:42:00,
2013-09-03 19:53:00,68.0,-99.9,-100.00,North,-999,-999.0,-999.0,-999,0.00,,,0.05,,2013-09-04 01:53:00,
2013-09-03 20:02:00,68.0,-99.9,-100.00,North,-999,-999.0,-999.0,-999,0.00,,,0.05,,2013-09-04 02:02:00,
2013-09-03 20:11:00,68.0,-99.9,-100.00,North,-999,-999.0,-999.0,-999,0.00,,,0.05,,2013-09-04 02:11:00,
2013-09-03 20:43:00,65.0,-99.9,-100.00,North,-999,-999.0,-999.0,-999,0.00,,,0.05,,2013-09-04 02:43:00,
2013-09-03 20:52:00,65.0,-99.9,-100.00,North,-999,-999.0,-999.0,-999,0.00,,,0.05,,2013-09-04 02:52:00,
2013-09-03 21:03:00,65.0,-99.9,-100.00,North,-999,-999.0,-999.0,-999,0.00,,,0.05,,2013-09-04 03:03:00,
2013-09-03 21:12:00,65.0,-99.9,-100.00,North,-999,-999.0,-999.0,-999,0.00,,,0.05,,2013-09-04 03:12:00,
2013-09-03 21:45:00,62.0,-99.9,-100.00,North,-999,-999.0,-999.0,-999,0.00,,,0.05,,2013-09-04 03:45:00,
2013-09-03 21:55:00,62.0,-99.9,-100.00,North,-999,-999.0,-999.0,-999,0.00,,,0.05,,2013-09-04 03:55:00,
2013-09-03 22:04:00,62.0,-99.9,-100.00,North,-999,-999.0,-999.0,-999,0.00,,,0.05,,2013-09-04 04:04:00,
2013-09-03 22:14:00,62.0,-99.9,-100.00,North,-999,-999.0,-999.0,-999,0.00,,,0.05,,2013-09-04 04:14:00,
2013-09-03 22:44:00,60.0,-99.9,-100.00,North,-999,-999.0,-999.0,-999,0.00,,,0.05,,2013-09-04 04:44:00,
2013-09-03 22:54:00,60.0,-99.9,-100.00,North,-999,-999.0,-999.0,-999,0.00,,,0.05,,2013-09-04 04:54:00,
2013-09-03 23:03:00,60.0,-99.9,-100.00,North,-999,-999.0,-999.0,-999,0.00,,,0.05,,2013-09-04 05:03:00,
2013-09-03 23:13:00,60.0,-99.9,-100.00,North,-999,-999.0,-999.0,-999,0.00,,,0.05,,2013-09-04 05:13:00,
2013-09-03 23:43:00,59.0,-99.9,-100.00,North,-999,-999.0,-999.0,-999,0.00,,,0.05,,2013-09-04 05:43:00,
2013-09-03 23:53:00,59.0,-99.9,-100.00,North,-999,-999.0,-999.0,-999,0.00,,,0.05,,2013-09-04 05:53:00,